Showing default

AE5RB, 66693

Orbit data source: Space-Track

AE5RB, 66693 is a payload satellite owned by ArkEdge (JP) in SSO that was launched on Fri, 28 Nov 2025 UTC via an FALCON 9 launch vehicle from the Air Force Western Test Range (AFWTR). Payload-class satellites include a variety of spacecraft equipped with specific instruments for various scientific and technological missions. These include communications satellites like Starlink; space stations such as the ISS; scientific satellites like the Hubble; Earth observation satellites from companies like Planet Labs, Umbra, and HawkEye 360; GPS; miniature CubeSats for education and research; and military/defense satellites.

Loading next visibility...
Identifier
66693, 2025-276AD
Orbit
SSO
Country
Flag of JPJP / JPN
Related business
Manufacturer
ArkEdge
Mission
Operational Commercial Sigint
Bus & Motor
CUBESAT 6U, Unknown motor
Mass
~10 kg wet, ~10 kg dry
Launch date (UTC)
2025-11-28 (9 months ago)
Launch vehicle
FALCON 9
Launch site
Air Force Western Test Range (AFWTR)
Object type
Payload
Rocket body
Debris
Shape & HBR
Box + 2 Pan, 0.2 m
Radar Cross Section
0.080 m², Medium (>0.1 m² and < 1m²)

Expand to show TLE details & history
Last TLE update: 9 hours ago

TLE from 9 hours ago
0 AE5RB
1 66693U 25276AD  26238.48615693  .00011443  00000-0  46966-3 0  9992
2 66693  97.4128 311.5628 0005371 114.1382 246.0418 15.24372069 41150
Epoch: 2026-08-26T11:40Z
TLE epoch observation values (Epoch: 2026-08-26T11:40:03.958Z)
Latitude
-0°
Longitude
161.80784°
Altitude
497.268 km
Speed
7.615 km/s
True Right ascension
20h 46m 15s
True Declination
0° 00' 00"
Sunlit
Object was in full shadow at epoch
Visualization orbit readout
Latitude
Unknown
Longitude
Unknown
Altitude
Unknown
Speed
Unknown
Apparent Right ascension
Unknown
Apparent Declination
Unknown
Sunlit
N/A
Visualization observer readout
Local Sidereal Time
11:46:35
Azimuth
Unknown
Elevation
Unknown
Doppler factor
Unknown
Orbital elements
Apogee altitude
493.321 km
Perigee altitude
485.943 km
Semi-major axis
6,867.769 km
Eccentricity
0.00054
Inclination
97.4128°
RAAN
311.5628°
Arg. of periapsis
114.1382°
True anomaly
245.98557°
Mean anomaly
246.0418°
Eccentric anomaly
246.01368°
Mean motion
3.81346 °/min
Orbital period
94.4 mins
BSTAR
0.00046966
Loading maneuver chart data...
Computing Atmospheric mass density...
Loading historical data...
Loading historical data...
Loading historical data...
Loading historical data...
Loading historical data...
Loading historical data...
Loading historical data...

Documentation

Showing up to 5 results
|